Погода в Клетне

Россия / Брянская область     53°23′23″N   33°13′00″E
темп.,
°C
ветер,
м/с
пор.,
м/с
влажн.,
%
обл.,
%
осадки,
мм/ч
давл.,
гПа
погр.,
м
4 июля, пн
пн400:00+18сз228098 0.0 101821
03:00+17зсз229293 0.0 101714
06:00+18сз129199 0.0 101743
09:00+24зсз12675 0.0 1017462
12:00+28зсз114578 0.0 10161742
15:00+27сз2354100 0.0 1015789
18:00+21ю378052 0.6 1016150
21:00+19ю238758 0.9 101650
5 июля, вт
вт500:00+17юз229413 0.7 101638
03:00+17юз1191100 1.1 101611
06:00+17ююз11926 0.0 101628
09:00+23ю12699 0.0 1016341
12:00+28ююз224769 0.1 10151787
15:00+23с017034 1.1 101674
18:00+25юв116598 0.1 1015162
21:00+20з128333 0.1 101512
6 июля, ср
ср600:00+19ююз118898 0.1 101511
03:00+19сз118963 0.9 101511
06:00+18вюв119292 0.2 101517
09:00+23зюз1274100 0.2 1015374
12:00+28ююз134787 0.0 10141394
15:00+28ю4548100 0.0 10131554
18:00+28ююв51056100 0.0 10101455
21:00+19юз3798100 8.0 1012217
7 июля, чт
чт700:00+16сз359978 1.0 1014250
03:00+13ссз269842 1.5 1015242
06:00+13с289699 0.1 1016369
09:00+17с357390 0.1 1016543
12:00+21с34597 0.0 1016877
15:00+21с3356100 0.0 10161028
18:00+20с247194 0.1 1016553
21:00+16с238849 0.1 101770
8 июля, пт
пт800:00+15с238880 0.0 101752
03:00+14с2392100 0.0 101767
06:00+15с2587100 0.0 1017158
09:00+19ссв2371100 0.0 1017440
12:00+22с1161100 0.0 10171033
15:00+20зюз0181100 0.3 1017184
18:00+22ссз1258100 0.1 1016958
21:00+18юз1180100 0.1 101711